Location: Antoign�
(47.0844°N, 0.1131°W)
Time: 00:03:42
(UTC+00:00)

Cosmos 1777 Rocket - Pass Details

Date: 03 March 2021
Orbit: 759 x 775 km, 74.0° (Epoch: 20 April)

Event Time Altitude Azimuth Distance (km) Brightness Sun altitude
Rises 20:09:03 0° 334° (NNW) 3,248 7.9 -24.4°
Reaches altitude 10° 20:11:28 10° 331° (NNW) 2,314 7.1 -24.8°
Maximum altitude 20:16:37 60° 253° (WSW) 870 4.4 -25.6°
Enters shadow 20:18:22 39° 192° (SSW) 1,133 4.7 -25.9°
